Lexington Weather

Lexington, Massachusetts, USA

34°F
4/16/2021 10:43am 
  • Lexington Conditions: Snow, Fog, Overcast
  • Temperature: 34.2°F / 1.2°CWarmer 0.4°F than last hour.
  • Dew Point: 32.9°FIncreased 0.4°Fsince last hour.
  • Relative Humidity: 95
  • Wind: Calm, 10-min avg: Calm, gust: 1 mph
  • Barometer: 29.48 in Steady
  • Visibility: ½ mile
  • Snow Today: 1.3 in
  •   

Regional Weather Roundup
for Boston / Norton, MA

        
000
ASUS41 KBOX 102305
RWRBOX

REGIONAL WEATHER ROUNDUP
NATIONAL WEATHER SERVICE BOSTON/NORTON MA
700 PM EDT SAT APR 10 2021

NOTE:  "FAIR" INDICATES FEW OR NO CLOUDS BELOW 12,000 FEET WITH NO 
SIGNIFICANT WEATHER AND/OR OBSTRUCTIONS TO VISIBILITY.

MAZALL-110000-
EASTERN MASSACHUSETTS
  
CITY           SKY/WX    TMP DP  RH WIND       PRES   REMARKS
BOSTON         PTCLDY    69  51  52 S14       29.76F                  
BEVERLY        NOT AVBL                                               
LAWRENCE       LGT RAIN  66  58  75 SE5       29.76F                  
BEDFORD        PTCLDY    73  51  46 SW8       29.74F                  
BLUE HILL        N/A     67  52  58 S17G26    29.77F                  
NORWOOD        CLEAR     71  52  50 S13G22    29.77S                  
MARSHFIELD     CLEAR     66  54  63 SW9G22    29.78F                  
PLYMOUTH       CLEAR     61  50  67 SW13G21   29.81S                  
TAUNTON        CLEAR     61  50  67 SW13G20   29.81F                  
NEW BEDFORD    CLEAR     55  50  83 SW14      29.83F                  
$$

MAZALL-110000-
CAPE COD AND THE ISLANDS
  
CITY           SKY/WX    TMP DP  RH WIND       PRES   REMARKS
FALMOUTH       PTCLDY    52  50  93 W16G23    29.84F                  
HYANNIS        MOCLDY    53  50  89 SW16      29.82F                  
CHATHAM        FOG       49  48  97 SW12G21   29.85F VSB 1/2          
PROVINCETOWN   CLEAR     51  47  86 SW14      29.81F                  
NANTUCKET      FOG       47  47 100 SW12      29.87F VSB 1/4          
MARTHAS VNYRD  FOG       50  49  96 SW12G21   29.86F VSB 1/2          
$$
 
MAZALL-110000-
CENTRAL AND WESTERN MASSACHUSETTS
  
CITY           SKY/WX    TMP DP  RH WIND       PRES   REMARKS
WORCESTER      CLEAR     68  50  52 SW15      29.80S                  
FITCHBURG      CLEAR     73  51  46 SW12      29.76F                  
ORANGE         PTCLDY    69  51  52 S13       29.78S                  
SPRINGFIELD    MOCLDY    69  52  55 SW8       29.77S                  
WESTFIELD      CLEAR     70  52  52 S15G22    29.77F                  
NORTH ADAMS    CLEAR     70  44  39 W7        29.77F                  
PITTSFIELD     CLEAR     68  51  54 SW9       29.79F                  
$$
 
RIZALL-110000-
RHODE ISLAND
  
CITY           SKY/WX    TMP DP  RH WIND       PRES   REMARKS
PROVIDENCE     CLEAR     63  52  67 SW15G21   29.83S                  
NEWPORT        CLOUDY    50  48  93 SW6       29.85F                  
BLOCK ISLAND   LGT RAIN  48  47  96 SW12      29.88F VSB 1            
SMITHFIELD     CLEAR     65  54  67 SW9       29.82R                  
WESTERLY       CLEAR     51  48  89 SW6       29.86F                  
$$
 
CTZALL-110000-
CONNECTICUT
  
CITY           SKY/WX    TMP DP  RH WIND       PRES   REMARKS
BRADLEY INTL   MOCLDY    69  52  54 S13       29.80S                  
HARTFORD       CLEAR     67  52  58 S10       29.82S                  
BRIDGEPORT     MOCLDY    59  50  72 S3        29.85F                  
DANBURY        MOCLDY    66  52  60 S8        29.85S                  
GROTON         PTCLDY    49  47  93 S5        29.86F                  
NEW HAVEN      PTCLDY    58  51  78 CALM      29.85F                  
CHESTER        FAIR      61  52  72 VRB6      29.85F                  
MERIDEN        PTCLDY    63  51  65 S8        29.84S                  
WILLIMANTIC    CLEAR     65  51  60 SW8       29.82F                  
OXFORD         PTCLDY    63  55  75 SW8       29.85F                  
$$

MEZ002-015-021-024-NHZ003-005-008-011-012-014-VTZ005-008-110000-
NORTHERN NEW ENGLAND
  
CITY           SKY/WX    TMP DP  RH WIND       PRES   REMARKS
PORTLAND ME    PTCLDY    58  47  66 S7        29.76F                  
BANGOR ME      CLOUDY    55  46  71 S8        29.82R                  
CONCORD NH     CLEAR     72  48  42 S5        29.73F                  
MANCHESTER NH  PTCLDY    72  50  45 SE6       29.73F                  
NASHUA NH      PTCLDY    74  51  44 CALM      29.74F                  
PORTSMOUTH NH  PTCLDY    64  48  54 SE8       29.75F                  
JAFFREY NH     PTCLDY    71  51  49 S6        29.78F                  
KEENE NH       PTCLDY    74  51  44 SW5       29.75F                  
BURLINGTON VT  PTCLDY    72  47  40 W5        29.75S                  
MT. WASHINGTON NOT AVBL                                               
$$

NYZ052-076-110000-
EASTERN NEW YORK
  
CITY           SKY/WX    TMP DP  RH WIND       PRES   REMARKS
ALBANY         MOCLDY    70  51  51 S8        29.77S                  
NEW YORK CITY  CLOUDY    62  51  67 S10       29.84F                  
$$
 
ANZALL-110000-
MARINE OBSERVATIONS
  
STATION/POSITION TIME  TEMP    WIND        PRES    VSBY  WAVE
                       AIR SEA DIR/SP/G                  HT/PER
                 (UTC) (F)     (DEG/KT/KT) (MB)    (MI)  (FT/S)
BOSTON BUOY      2250   52 46  180/ 10/ 12 1008.3F         4/10
BUZZARDS BAY     2200          220/ 16/ 17 1012.4F
NANTUCKET SOUND  2240      47                N/A
MASS BAY-STELLWA 2204   51     180/ 12/ 14 1007.3F  1 7/8  4/11
ISLE OF SHOALS   2200   54     160/ 21/ 22 1007.3F
S OF BLOCK IS    2226      47                N/A           4/11
$$

......................KEY.........................
  SKY/WX - SKY CONDITION/PRESENT WEATHER
  TMP    - TEMPERATURE IN FAHRENHEIT
  DWPT   - DEWPOINT IN FAHRENHEIT
  RH     - RELATIVE HUMIDITY IN PERCENT
  WIND   - DIRECTION AND SPEED IN MPH
  PRES   - MEAN SEA LEVEL PRESSURE IN INCHES OF HG
  WCI    - WIND CHILL INDEX
  VSB    - VISIBILITY IN MILES
  HX     - HEAT INDEX
  TC     - TEMPERATURE IN CELSIUS
  VRB    - VARIABLE WIND DIRECTION
  N/A    - NOT AVAILABLE
  
      

Other recent Regional Weather Roundups

Fri Apr 16, 10:05am

Fri Apr 16, 9:04am

Fri Apr 16, 8:04am

Fri Apr 16, 7:04am

Fri Apr 16, 6:04am

Fri Apr 16, 5:04am

Fri Apr 16, 4:04am

Fri Apr 16, 3:04am

Fri Apr 16, 2:04am

Fri Apr 16, 1:04am

Fri Apr 16, 12:04am

Thu Apr 15, 11:05pm

Thu Apr 15, 10:04pm

Thu Apr 15, 9:04pm

Thu Apr 15, 8:04pm

Thu Apr 15, 7:05pm

Thu Apr 15, 6:04pm

Thu Apr 15, 5:05pm

Thu Apr 15, 4:04pm

Thu Apr 15, 3:05pm

Thu Apr 15, 2:04pm

Thu Apr 15, 1:05pm

Thu Apr 15, 12:04pm

Thu Apr 15, 11:04am

Thu Apr 15, 10:05am

Thu Apr 15, 9:04am

Thu Apr 15, 8:04am

Thu Apr 15, 7:04am

Thu Apr 15, 6:04am

Thu Apr 15, 5:04am

Thu Apr 15, 4:04am

Thu Apr 15, 3:04am

Thu Apr 15, 2:04am

Thu Apr 15, 1:04am

Thu Apr 15, 12:04am

Wed Apr 14, 11:04pm

Wed Apr 14, 10:04pm

Wed Apr 14, 9:04pm

Wed Apr 14, 8:04pm

Wed Apr 14, 7:04pm

Wed Apr 14, 6:04pm

Wed Apr 14, 5:05pm

Wed Apr 14, 4:04pm

Wed Apr 14, 3:05pm

Wed Apr 14, 2:04pm

Wed Apr 14, 1:05pm

Wed Apr 14, 12:04pm

Wed Apr 14, 11:04am

Wed Apr 14, 10:04am

Wed Apr 14, 9:04am

Wed Apr 14, 8:04am

Wed Apr 14, 7:04am

Wed Apr 14, 6:04am

Wed Apr 14, 5:04am

Wed Apr 14, 4:04am

Wed Apr 14, 3:04am

Wed Apr 14, 2:04am

Wed Apr 14, 1:04am

Wed Apr 14, 12:04am

Tue Apr 13, 11:04pm

Tue Apr 13, 10:05pm

Tue Apr 13, 9:05pm

Tue Apr 13, 8:05pm

Tue Apr 13, 7:04pm

Tue Apr 13, 6:04pm

Tue Apr 13, 5:05pm

Tue Apr 13, 4:04pm

Tue Apr 13, 3:04pm

Tue Apr 13, 2:05pm

Tue Apr 13, 1:04pm

Tue Apr 13, 12:05pm

Tue Apr 13, 11:05am

Tue Apr 13, 10:04am

Tue Apr 13, 9:04am

Tue Apr 13, 8:04am

Tue Apr 13, 7:04am

Tue Apr 13, 6:04am

Tue Apr 13, 5:04am

Tue Apr 13, 4:04am

Tue Apr 13, 3:04am

Tue Apr 13, 2:04am

Tue Apr 13, 1:04am

Tue Apr 13, 12:05am

Mon Apr 12, 11:04pm

Mon Apr 12, 10:04pm

Mon Apr 12, 9:04pm

Mon Apr 12, 8:04pm

Mon Apr 12, 7:05pm

Mon Apr 12, 6:04pm

Mon Apr 12, 5:04pm

Mon Apr 12, 4:04pm

Mon Apr 12, 3:05pm

Mon Apr 12, 2:04pm

Mon Apr 12, 1:05pm

Mon Apr 12, 12:04pm

Mon Apr 12, 11:04am

Mon Apr 12, 10:04am

Mon Apr 12, 9:04am

Mon Apr 12, 8:04am

Mon Apr 12, 7:04am

Mon Apr 12, 6:04am

Mon Apr 12, 5:04am

Mon Apr 12, 4:04am

Mon Apr 12, 3:04am

Mon Apr 12, 2:04am

Mon Apr 12, 1:05am

Mon Apr 12, 12:04am

Sun Apr 11, 11:04pm

Sun Apr 11, 10:04pm

Sun Apr 11, 9:04pm

Sun Apr 11, 8:04pm

Sun Apr 11, 7:04pm

Sun Apr 11, 6:05pm

Sun Apr 11, 5:05pm

Sun Apr 11, 4:04pm

Sun Apr 11, 3:05pm

Sun Apr 11, 2:05pm

Sun Apr 11, 1:05pm

Sun Apr 11, 12:04pm

Sun Apr 11, 11:05am

Sun Apr 11, 10:05am

Sun Apr 11, 9:04am

Sun Apr 11, 8:04am

Sun Apr 11, 7:04am

Sun Apr 11, 6:04am

Sun Apr 11, 5:04am

Sun Apr 11, 4:04am

Sun Apr 11, 3:04am

Sun Apr 11, 2:04am

Sun Apr 11, 1:05am

Sun Apr 11, 12:04am

Sat Apr 10, 11:05pm

Sat Apr 10, 10:04pm

Sat Apr 10, 9:04pm

Sat Apr 10, 8:04pm

Sat Apr 10, 6:04pm

Sat Apr 10, 5:04pm

Sat Apr 10, 4:04pm

Sat Apr 10, 3:04pm

Sat Apr 10, 2:05pm

Sat Apr 10, 1:04pm

Sat Apr 10, 12:04pm

Sat Apr 10, 11:04am

Sat Apr 10, 10:04am

Sat Apr 10, 9:04am

Sat Apr 10, 8:04am

Sat Apr 10, 7:04am

Sat Apr 10, 6:04am

Sat Apr 10, 5:04am

Sat Apr 10, 4:04am

Sat Apr 10, 3:04am

Sat Apr 10, 2:04am

Sat Apr 10, 1:05am

Sat Apr 10, 12:04am

Fri Apr 9, 11:04pm

Fri Apr 9, 10:05pm

Fri Apr 9, 9:04pm

Fri Apr 9, 8:05pm

Fri Apr 9, 7:05pm

Fri Apr 9, 6:04pm

Fri Apr 9, 5:04pm

Fri Apr 9, 4:05pm

Fri Apr 9, 3:05pm

Fri Apr 9, 2:04pm

Fri Apr 9, 1:04pm

Fri Apr 9, 12:04pm

Fri Apr 9, 11:05am

Meta data:

ID: 7d0474c6-cd01-4879-a9f1-339a2be8df4a
Link: https://api.weather.gov/products/7d0474c6-cd01-4879-a9f1-339a2be8df4a